| time (UTC) | temp F | wind direction | speed MPH | gust MPH | rain 1hr in | rain 24hr in | rain mn in | humidity % | barometer mb |
| 20260508111224 | 38 | 122 | 12.0 | 17.0 | 0.07 | 0.01 | 0.01 | 99 | 1020.6 |
| 20260508110715 | 39 | 88 | 6.0 | 9.0 | 0.00 | 0.00 | 0.00 | 99 | 1019.4 |
| 20260508110212 | 39 | 88 | 6.0 | 9.0 | 0.00 | 0.00 | 0.00 | 99 | 1019.4 |
| 20260508105712 | 39 | 173 | 5.0 | 6.0 | 0.00 | 0.00 | 0.00 | 99 | 1019.8 |
| 20260508105209 | 39 | 173 | 5.0 | 6.0 | 0.00 | 0.00 | 0.00 | 99 | 1019.8 |
| 20260508104707 | 39 | 142 | 8.0 | 9.0 | 0.00 | 0.00 | 0.00 | 99 | 1019.6 |
| 20260508104203 | 39 | 142 | 8.0 | 9.0 | 0.00 | 0.00 | 0.00 | 99 | 1019.6 |
| 20260508103701 | 38 | 155 | 2.0 | 4.0 | 0.00 | 0.00 | 0.00 | 99 | 1019.3 |
| 20260508103158 | 38 | 155 | 2.0 | 4.0 | 0.00 | 0.00 | 0.00 | 99 | 1019.3 |
| 20260508102655 | 38 | 209 | 2.0 | 2.0 | 0.00 | 0.00 | 0.00 | 99 | 1019.2 |
| 20260508102153 | 38 | 209 | 2.0 | 2.0 | 0.00 | 0.00 | 0.00 | 99 | 1019.2 |
| 20260508101650 | 38 | 206 | 1.0 | 2.0 | 0.00 | 0.00 | 0.00 | 99 | 1018.9 |
| 20260508101148 | 38 | 206 | 1.0 | 2.0 | 0.00 | 0.00 | 0.00 | 99 | 1018.9 |
| 20260508100644 | 39 | 284 | 2.0 | 3.0 | 0.00 | 0.00 | 0.00 | 99 | 1018.8 |
| 20260508100143 | 39 | 284 | 2.0 | 3.0 | 0.00 | 0.00 | 0.00 | 99 | 1018.8 |
| 20260508095639 | 40 | 123 | 0.0 | 1.0 | 0.00 | 0.00 | 0.00 | 99 | 1019.2 |
| 20260508095136 | 40 | 123 | 0.0 | 1.0 | 0.00 | 0.00 | 0.00 | 99 | 1019.2 |
| 20260508094632 | 39 | 126 | 1.0 | 1.0 | 0.00 | 0.00 | 0.00 | 99 | 1019.3 |
| 20260508094129 | 39 | 126 | 1.0 | 1.0 | 0.00 | 0.00 | 0.00 | 99 | 1019.3 |
| 20260508093627 | 40 | 92 | 1.0 | 2.0 | 0.00 | 0.00 | 0.00 | 99 | 1019.1 |
| 20260508093125 | 40 | 92 | 1.0 | 2.0 | 0.00 | 0.00 | 0.00 | 99 | 1019.1 |
| 20260508092621 | 40 | 138 | 1.0 | 2.0 | 0.00 | 0.00 | 0.00 | 99 | 1018.9 |
| 20260508092120 | 40 | 138 | 1.0 | 2.0 | 0.00 | 0.00 | 0.00 | 99 | 1018.9 |
| 20260508091617 | 40 | 267 | 5.0 | 7.0 | 0.00 | 0.00 | 0.00 | 99 | 1018.8 |
| 20260508091114 | 40 | 267 | 5.0 | 7.0 | 0.00 | 0.00 | 0.00 | 99 | 1018.8 |
| 20260508090612 | 40 | 232 | 9.0 | 13.0 | 0.00 | 0.00 | 0.00 | 99 | 1018.7 |
| 20260508090109 | 40 | 232 | 9.0 | 13.0 | 0.00 | 0.00 | 0.00 | 99 | 1018.7 |
| 20260508085605 | 41 | 235 | 11.0 | 16.0 | 0.00 | 0.00 | 0.00 | 99 | 1018.2 |
| 20260508085102 | 41 | 235 | 11.0 | 16.0 | 0.00 | 0.00 | 0.00 | 99 | 1018.2 |
| 20260508084559 | 42 | 246 | 1.0 | 1.0 | 0.00 | 0.00 | 0.00 | 99 | 1018.3 |
| 20260508084056 | 42 | 246 | 1.0 | 1.0 | 0.00 | 0.00 | 0.00 | 99 | 1018.3 |
| 20260508083552 | 43 | 78 | 4.0 | 6.0 | 0.00 | 0.00 | 0.00 | 99 | 1018.3 |
| 20260508083049 | 43 | 78 | 4.0 | 6.0 | 0.00 | 0.00 | 0.00 | 99 | 1018.3 |
| 20260508081731 | 42 | 149 | 4.0 | 4.0 | 0.00 | 0.00 | 0.00 | 99 | 1018.2 |
| 20260508081228 | 42 | 149 | 4.0 | 4.0 | 0.00 | 0.00 | 0.00 | 99 | 1018.2 |
| 20260508080725 | 42 | 69 | 5.0 | 6.0 | 0.00 | 0.00 | 0.00 | 99 | 1018.1 |
| 20260508080223 | 42 | 69 | 5.0 | 6.0 | 0.00 | 0.00 | 0.00 | 99 | 1018.1 |
| 20260508075719 | 43 | 25 | 5.0 | 6.0 | 0.00 | 0.00 | 0.00 | 99 | 1018.3 |
| 20260508075216 | 43 | 25 | 5.0 | 6.0 | 0.00 | 0.00 | 0.00 | 99 | 1018.3 |
| 20260508074714 | 42 | 82 | 6.0 | 8.0 | 0.00 | 0.00 | 0.00 | 99 | 1018.2 |
| 20260508074212 | 42 | 82 | 6.0 | 8.0 | 0.00 | 0.00 | 0.00 | 99 | 1018.2 |
| 20260508073708 | 42 | 81 | 1.0 | 1.0 | 0.00 | 0.00 | 0.00 | 99 | 1018.8 |
| 20260508073206 | 42 | 81 | 1.0 | 1.0 | 0.00 | 0.00 | 0.00 | 99 | 1018.8 |
| 20260508072701 | 42 | 120 | 4.0 | 4.0 | 0.00 | 0.00 | 0.00 | 99 | 1019.1 |
| 20260508072159 | 42 | 120 | 4.0 | 4.0 | 0.00 | 0.00 | 0.00 | 99 | 1019.1 |
| 20260508071656 | 43 | 148 | 4.0 | 7.0 | 0.00 | 0.00 | 0.00 | 99 | 1019.2 |
| 20260508071155 | 43 | 148 | 4.0 | 7.0 | 0.00 | 0.00 | 0.00 | 99 | 1019.2 |
| 20260508070651 | 44 | 164 | 4.0 | 6.0 | 0.00 | 0.00 | 0.00 | 99 | 1019.6 |
| 20260508070150 | 44 | 164 | 4.0 | 6.0 | 0.00 | 0.00 | 0.00 | 99 | 1019.6 |
| 20260508065647 | 42 | 172 | 8.0 | 15.0 | 0.00 | 0.00 | 0.00 | 99 | 1019.2 |
| 20260508065145 | 42 | 172 | 8.0 | 15.0 | 0.00 | 0.00 | 0.00 | 99 | 1019.2 |
| 20260508064642 | 44 | 201 | 13.0 | 17.0 | 0.00 | 0.00 | 0.00 | 99 | 1019.6 |
| 20260508064140 | 44 | 201 | 13.0 | 17.0 | 0.00 | 0.00 | 0.00 | 99 | 1019.6 |
| 20260508063637 | 44 | 150 | 4.0 | 4.0 | 0.00 | 0.00 | 0.00 | 99 | 1019.6 |
| 20260508063135 | 44 | 150 | 4.0 | 4.0 | 0.00 | 0.00 | 0.00 | 99 | 1019.6 |
| 20260508062633 | 45 | 118 | 5.0 | 6.0 | 0.00 | 0.00 | 0.00 | 99 | 1019.4 |
| 20260508062129 | 45 | 118 | 5.0 | 6.0 | 0.00 | 0.00 | 0.00 | 99 | 1019.4 |
| 20260508061626 | 43 | 202 | 0.0 | 0.0 | 0.00 | 0.00 | 0.00 | 99 | 1019.6 |
| 20260508061124 | 43 | 202 | 0.0 | 0.0 | 0.00 | 0.00 | 0.00 | 99 | 1019.6 |
| 20260508060620 | 43 | 126 | 0.0 | 0.0 | 0.00 | 0.00 | 0.00 | 99 | 1019.6 |
| 20260508060118 | 43 | 126 | 0.0 | 0.0 | 0.00 | 0.00 | 0.00 | 99 | 1019.6 |
| 20260508055613 | 42 | 330 | 2.0 | 2.0 | 0.00 | 0.00 | 0.00 | 99 | 1018.9 |
| 20260508055110 | 42 | 330 | 2.0 | 2.0 | 0.00 | 0.00 | 0.00 | 99 | 1018.9 |
| 20260508054607 | 44 | 96 | 1.0 | 1.0 | 0.00 | 0.00 | 0.00 | 99 | 1019.3 |
| 20260508054104 | 44 | 96 | 1.0 | 1.0 | 0.00 | 0.00 | 0.00 | 99 | 1019.3 |
| 20260508053600 | 44 | 148 | 1.0 | 1.0 | 0.00 | 0.00 | 0.00 | 99 | 1019.3 |
| 20260508053059 | 44 | 148 | 1.0 | 1.0 | 0.00 | 0.00 | 0.00 | 99 | 1019.3 |
| 20260508052556 | 44 | 159 | 2.0 | 3.0 | 0.00 | 0.00 | 0.00 | 99 | 1019.8 |
| 20260508052053 | 44 | 159 | 2.0 | 3.0 | 0.00 | 0.00 | 0.00 | 99 | 1019.8 |
| 20260508051549 | 44 | 159 | 5.0 | 6.0 | 0.00 | 0.00 | 0.00 | 99 | 1019.7 |
| 20260508051044 | 44 | 159 | 5.0 | 6.0 | 0.00 | 0.00 | 0.00 | 99 | 1019.7 |
| 20260508050541 | 45 | 113 | 4.0 | 4.0 | 0.00 | 0.00 | 0.00 | 99 | 1019.6 |
| 20260508050038 | 45 | 113 | 4.0 | 4.0 | 0.00 | 0.00 | 0.00 | 99 | 1019.6 |
| 20260508045534 | 44 | 88 | 5.0 | 6.0 | 0.00 | 0.00 | 0.00 | 99 | 1019.3 |
| 20260508045032 | 44 | 88 | 5.0 | 6.0 | 0.00 | 0.00 | 0.00 | 99 | 1019.3 |
| 20260508044529 | 43 | 174 | 3.0 | 4.0 | 0.00 | 0.00 | 0.00 | 99 | 1019.3 |
| 20260508044025 | 43 | 174 | 3.0 | 4.0 | 0.00 | 0.00 | 0.00 | 99 | 1019.3 |
| 20260508043522 | 42 | 168 | 8.0 | 9.0 | 0.00 | 0.00 | 0.00 | 99 | 1019.1 |
| 20260508043019 | 42 | 129 | 0.0 | 1.0 | 0.00 | 0.00 | 0.00 | 99 | 1018.9 |
| 20260508042516 | 42 | 129 | 0.0 | 1.0 | 0.00 | 0.00 | 0.00 | 99 | 1018.9 |
| 20260508042014 | 43 | 151 | 2.0 | 3.0 | 0.00 | 0.00 | 0.00 | 99 | 1018.7 |
| 20260508041509 | 43 | 151 | 2.0 | 3.0 | 0.00 | 0.00 | 0.00 | 99 | 1018.7 |
| 20260508041006 | 44 | 70 | 3.0 | 4.0 | 0.00 | 0.00 | 0.00 | 99 | 1018.3 |
| 20260508040504 | 44 | 70 | 3.0 | 4.0 | 0.00 | 0.00 | 0.00 | 99 | 1018.3 |
| 20260508040001 | 44 | 27 | 4.0 | 4.0 | 0.00 | 0.00 | 0.00 | 99 | 1018.6 |
| 20260508035458 | 44 | 27 | 4.0 | 4.0 | 0.00 | 0.00 | 0.00 | 99 | 1018.6 |
| 20260508034954 | 43 | 303 | 3.0 | 4.0 | 0.00 | 0.00 | 0.00 | 99 | 1018.7 |
| 20260508034452 | 43 | 303 | 3.0 | 4.0 | 0.00 | 0.00 | 0.00 | 99 | 1018.7 |
| 20260508033948 | 43 | 138 | 6.0 | 7.0 | 0.00 | 0.00 | 0.00 | 99 | 1019.3 |
| 20260508033447 | 43 | 138 | 6.0 | 7.0 | 0.00 | 0.00 | 0.00 | 99 | 1019.3 |
| 20260508032943 | 44 | 102 | 8.0 | 11.0 | 0.00 | 0.00 | 0.00 | 99 | 1019.6 |
| 20260508032441 | 44 | 102 | 8.0 | 11.0 | 0.00 | 0.00 | 0.00 | 99 | 1019.6 |
| 20260508031937 | 44 | 73 | 6.0 | 7.0 | 0.00 | 0.00 | 0.00 | 99 | 1019.4 |
| 20260508031435 | 44 | 73 | 6.0 | 7.0 | 0.00 | 0.00 | 0.00 | 99 | 1019.4 |
| 20260508030930 | 44 | 92 | 7.0 | 8.0 | 0.00 | 0.00 | 0.00 | 99 | 1018.9 |
| 20260508030428 | 44 | 92 | 7.0 | 8.0 | 0.00 | 0.00 | 0.00 | 99 | 1018.9 |
| 20260508025925 | 44 | 82 | 9.0 | 11.0 | 0.00 | 0.00 | 0.00 | 99 | 1018.9 |
| 20260508025422 | 44 | 82 | 9.0 | 11.0 | 0.00 | 0.00 | 0.00 | 99 | 1018.9 |
| 20260508024919 | 43 | 176 | 10.0 | 11.0 | 0.00 | 0.00 | 0.00 | 99 | 1018.9 |
| 20260508024416 | 43 | 176 | 10.0 | 11.0 | 0.00 | 0.00 | 0.00 | 99 | 1018.9 |
| 20260508023912 | 46 | 189 | 16.0 | 17.0 | 0.00 | 0.00 | 0.00 | 99 | 1018.8 |
| 20260508023409 | 46 | 189 | 16.0 | 17.0 | 0.00 | 0.00 | 0.00 | 99 | 1018.8 |
| 20260508022906 | 47 | 111 | 6.0 | 7.0 | 0.00 | 0.00 | 0.00 | 99 | 1018.3 |
| 20260508022401 | 47 | 111 | 6.0 | 7.0 | 0.00 | 0.00 | 0.00 | 99 | 1018.3 |
| 20260508021858 | 47 | 117 | 3.0 | 4.0 | 0.00 | 0.00 | 0.00 | 99 | 1018.6 |
| 20260508021354 | 47 | 117 | 3.0 | 4.0 | 0.00 | 0.00 | 0.00 | 99 | 1018.6 |
| 20260508020850 | 47 | 82 | 4.0 | 4.0 | 0.00 | 0.00 | 0.00 | 99 | 1018.4 |
| 20260508020348 | 47 | 82 | 4.0 | 4.0 | 0.00 | 0.00 | 0.00 | 99 | 1018.4 |
| 20260508015845 | 47 | 92 | 11.0 | 11.0 | 0.00 | 0.00 | 0.00 | 99 | 1018.4 |
| 20260508015343 | 47 | 92 | 11.0 | 11.0 | 0.00 | 0.00 | 0.00 | 99 | 1018.4 |
| 20260508014839 | 48 | 109 | 4.0 | 6.0 | 0.00 | 0.00 | 0.00 | 99 | 1018.2 |
| 20260508014337 | 48 | 109 | 4.0 | 6.0 | 0.00 | 0.00 | 0.00 | 99 | 1018.2 |
| 20260508013837 | 48 | 132 | 3.0 | 4.0 | 0.00 | 0.00 | 0.00 | 99 | 1017.7 |
| 20260508013334 | 48 | 132 | 3.0 | 4.0 | 0.00 | 0.00 | 0.00 | 99 | 1017.7 |
| 20260508012831 | 47 | 97 | 15.0 | 18.0 | 0.00 | 0.00 | 0.00 | 99 | 1017.9 |
| 20260508012328 | 47 | 97 | 15.0 | 18.0 | 0.00 | 0.00 | 0.00 | 99 | 1017.9 |
| 20260508011826 | 47 | 145 | 8.0 | 16.0 | 0.00 | 0.00 | 0.00 | 99 | 1018.1 |
| 20260508011324 | 47 | 145 | 8.0 | 16.0 | 0.00 | 0.00 | 0.00 | 99 | 1018.1 |
| 20260508010820 | 47 | 91 | 14.0 | 16.0 | 0.00 | 0.00 | 0.00 | 99 | 1017.7 |
| 20260508010318 | 47 | 91 | 14.0 | 16.0 | 0.00 | 0.00 | 0.00 | 99 | 1017.7 |
| 20260508005815 | 47 | 92 | 8.0 | 9.0 | 0.00 | 0.00 | 0.00 | 99 | 1017.7 |
| 20260508005312 | 47 | 92 | 8.0 | 9.0 | 0.00 | 0.00 | 0.00 | 99 | 1017.7 |
| 20260508004808 | 46 | 111 | 5.0 | 6.0 | 0.00 | 0.00 | 0.00 | 99 | 1017.2 |
| 20260508004304 | 46 | 111 | 5.0 | 6.0 | 0.00 | 0.00 | 0.00 | 99 | 1017.2 |
| 20260508003800 | 47 | 84 | 10.0 | 11.0 | 0.00 | 0.00 | 0.00 | 99 | 1017.1 |
| 20260508003259 | 47 | 84 | 10.0 | 11.0 | 0.00 | 0.00 | 0.00 | 99 | 1017.1 |
| 20260508002754 | 47 | 51 | 8.0 | 10.0 | 0.00 | 0.00 | 0.00 | 99 | 1017.4 |
| 20260508002252 | 47 | 51 | 8.0 | 10.0 | 0.00 | 0.00 | 0.00 | 99 | 1017.4 |
| 20260508001748 | 46 | 68 | 12.0 | 18.0 | 0.00 | 0.00 | 0.00 | 99 | 1017.2 |
| 20260508001243 | 46 | 68 | 12.0 | 18.0 | 0.00 | 0.00 | 0.00 | 99 | 1017.2 |
| 20260508000740 | 46 | 121 | 8.0 | 14.0 | 0.00 | 0.00 | 0.00 | 99 | 1017.2 |
| 20260508000237 | 46 | 121 | 8.0 | 14.0 | 0.00 | 0.00 | 0.00 | 99 | 1017.2 |
| 20260507235733 | 46 | 32 | 9.0 | 14.0 | 0.00 | 0.00 | 0.00 | 99 | 1017.2 |
| 20260507235231 | 46 | 32 | 9.0 | 14.0 | 0.00 | 0.00 | 0.00 | 99 | 1017.2 |
| 20260507234728 | 48 | 93 | 18.0 | 29.0 | 0.00 | 0.00 | 0.00 | 99 | 1017.6 |
| 20260507234224 | 48 | 93 | 18.0 | 29.0 | 0.00 | 0.00 | 0.00 | 99 | 1017.6 |
| 20260507233721 | 49 | 80 | 9.0 | 13.0 | 0.00 | 0.00 | 0.00 | 99 | 1017.6 |
| 20260507233219 | 49 | 80 | 9.0 | 13.0 | 0.00 | 0.00 | 0.00 | 99 | 1017.6 |
| 20260507232716 | 48 | 72 | 15.0 | 21.0 | 0.00 | 0.00 | 0.00 | 99 | 1017.7 |
| 20260507232213 | 48 | 72 | 15.0 | 21.0 | 0.00 | 0.00 | 0.00 | 99 | 1017.7 |
| 20260507231709 | 49 | 94 | 13.0 | 15.0 | 0.00 | 0.00 | 0.00 | 99 | 1017.8 |
| 20260507231206 | 49 | 94 | 13.0 | 15.0 | 0.00 | 0.00 | 0.00 | 99 | 1017.8 |
| 20260507230703 | 49 | 167 | 15.0 | 18.0 | 0.00 | 0.00 | 0.00 | 99 | 1017.7 |
| 20260507230200 | 49 | 167 | 15.0 | 18.0 | 0.00 | 0.00 | 0.00 | 99 | 1017.7 |
| 20260507225700 | 50 | 109 | 21.0 | 24.0 | 0.00 | 0.00 | 0.00 | 99 | 1017.4 |
| 20260507225157 | 50 | 109 | 21.0 | 24.0 | 0.00 | 0.00 | 0.00 | 99 | 1017.4 |
| 20260507224652 | 51 | 110 | 19.0 | 23.0 | 0.00 | 0.00 | 0.00 | 99 | 1017.3 |
| 20260507224149 | 51 | 110 | 19.0 | 23.0 | 0.00 | 0.00 | 0.00 | 99 | 1017.3 |
| 20260507223645 | 52 | 149 | 19.0 | 25.0 | 0.00 | 0.00 | 0.00 | 99 | 1017.1 |
| 20260507223142 | 52 | 149 | 19.0 | 25.0 | 0.00 | 0.00 | 0.00 | 99 | 1017.1 |
| 20260507222639 | 53 | 116 | 14.0 | 18.0 | 0.00 | 0.00 | 0.00 | 99 | 1017.1 |
| 20260507222135 | 53 | 116 | 14.0 | 18.0 | 0.00 | 0.00 | 0.00 | 99 | 1017.1 |
| 20260507221632 | 52 | 140 | 12.0 | 16.0 | 0.00 | 0.00 | 0.00 | 99 | 1017.1 |
| 20260507221128 | 52 | 140 | 12.0 | 16.0 | 0.00 | 0.00 | 0.00 | 99 | 1017.1 |
| 20260507220626 | 53 | 102 | 15.0 | 18.0 | 0.00 | 0.00 | 0.00 | 99 | 1017.1 |
| 20260507220123 | 53 | 102 | 15.0 | 18.0 | 0.00 | 0.00 | 0.00 | 99 | 1017.1 |
| 20260507215619 | 53 | 100 | 8.0 | 9.0 | 0.00 | 0.00 | 0.00 | 99 | 1017.3 |
| 20260507215117 | 53 | 100 | 8.0 | 9.0 | 0.00 | 0.00 | 0.00 | 99 | 1017.3 |
| 20260507214614 | 55 | 107 | 14.0 | 16.0 | 0.00 | 0.00 | 0.00 | 99 | 1017.2 |
| 20260507214110 | 55 | 107 | 14.0 | 16.0 | 0.00 | 0.00 | 0.00 | 99 | 1017.2 |
| 20260507213606 | 52 | 189 | 13.0 | 16.0 | 0.00 | 0.00 | 0.00 | 99 | 1017.3 |
| 20260507213104 | 52 | 189 | 13.0 | 16.0 | 0.00 | 0.00 | 0.00 | 99 | 1017.3 |
| 20260507212559 | 53 | 136 | 13.0 | 18.0 | 0.00 | 0.00 | 0.00 | 99 | 1017.4 |
| 20260507212056 | 53 | 136 | 13.0 | 18.0 | 0.00 | 0.00 | 0.00 | 99 | 1017.4 |
| 20260507211553 | 53 | 137 | 9.0 | 14.0 | 0.00 | 0.00 | 0.00 | 99 | 1017.6 |
| 20260507211049 | 53 | 137 | 9.0 | 14.0 | 0.00 | 0.00 | 0.00 | 99 | 1017.6 |
| 20260507210547 | 52 | 111 | 11.0 | 13.0 | 0.00 | 0.00 | 0.00 | 99 | 1017.8 |
| 20260507210043 | 52 | 111 | 11.0 | 13.0 | 0.00 | 0.00 | 0.00 | 99 | 1017.8 |
| 20260507205540 | 52 | 149 | 13.0 | 17.0 | 0.00 | 0.00 | 0.00 | 99 | 1017.6 |
| 20260507205036 | 52 | 149 | 13.0 | 17.0 | 0.00 | 0.00 | 0.00 | 99 | 1017.6 |
| 20260507204533 | 52 | 156 | 11.0 | 15.0 | 0.00 | 0.00 | 0.00 | 99 | 1017.9 |
| 20260507204031 | 52 | 156 | 11.0 | 15.0 | 0.00 | 0.00 | 0.00 | 99 | 1017.9 |
| 20260507203528 | 51 | 60 | 17.0 | 19.0 | 0.00 | 0.00 | 0.00 | 99 | 1018.1 |
| 20260507203025 | 51 | 60 | 17.0 | 19.0 | 0.00 | 0.00 | 0.00 | 99 | 1018.1 |
| 20260507202521 | 50 | 78 | 11.0 | 15.0 | 0.00 | 0.00 | 0.00 | 99 | 1018.2 |
| 20260507202017 | 50 | 78 | 11.0 | 15.0 | 0.00 | 0.00 | 0.00 | 99 | 1018.2 |
| 20260507201513 | 51 | 49 | 6.0 | 7.0 | 0.00 | 0.00 | 0.00 | 99 | 1018.3 |
| 20260507201009 | 51 | 49 | 6.0 | 7.0 | 0.00 | 0.00 | 0.00 | 99 | 1018.3 |
| 20260507200505 | 52 | 70 | 8.0 | 9.0 | 0.00 | 0.00 | 0.00 | 99 | 1018.2 |
| 20260507200001 | 52 | 70 | 8.0 | 9.0 | 0.00 | 0.00 | 0.00 | 99 | 1018.2 |
| 20260507195459 | 51 | 26 | 6.0 | 7.0 | 0.00 | 0.00 | 0.00 | 99 | 1018.6 |
| 20260507194956 | 51 | 26 | 6.0 | 7.0 | 0.00 | 0.00 | 0.00 | 99 | 1018.6 |
| 20260507194452 | 51 | 97 | 13.0 | 16.0 | 0.00 | 0.00 | 0.00 | 99 | 1018.4 |
| 20260507193948 | 51 | 97 | 13.0 | 16.0 | 0.00 | 0.00 | 0.00 | 99 | 1018.4 |
| 20260507193445 | 51 | 67 | 12.0 | 14.0 | 0.00 | 0.00 | 0.00 | 99 | 1018.4 |
| 20260507192942 | 51 | 67 | 12.0 | 14.0 | 0.00 | 0.00 | 0.00 | 99 | 1018.4 |
| 20260507192438 | 51 | 82 | 9.0 | 13.0 | 0.00 | 0.00 | 0.00 | 99 | 1018.7 |
| 20260507191936 | 51 | 82 | 9.0 | 13.0 | 0.00 | 0.00 | 0.00 | 99 | 1018.7 |
| 20260507191431 | 49 | 97 | 21.0 | 24.0 | 0.00 | 0.00 | 0.00 | 99 | 1018.4 |
| 20260507190928 | 49 | 97 | 21.0 | 24.0 | 0.00 | 0.00 | 0.00 | 99 | 1018.4 |
| 20260507190426 | 49 | 121 | 24.0 | 30.0 | 0.00 | 0.00 | 0.00 | 99 | 1018.4 |
| 20260507185925 | 49 | 121 | 24.0 | 30.0 | 0.00 | 0.00 | 0.00 | 99 | 1018.4 |
| 20260507185421 | 50 | 144 | 16.0 | 19.0 | 0.00 | 0.00 | 0.00 | 99 | 1018.8 |
| 20260507184918 | 49 | 156 | 21.0 | 23.0 | 0.00 | 0.00 | 0.00 | 99 | 1018.6 |
| 20260507184416 | 49 | 156 | 21.0 | 23.0 | 0.00 | 0.00 | 0.00 | 99 | 1018.6 |
| 20260507183913 | 49 | 96 | 14.0 | 16.0 | 0.00 | 0.00 | 0.00 | 99 | 1018.6 |
| 20260507183410 | 49 | 96 | 14.0 | 16.0 | 0.00 | 0.00 | 0.00 | 99 | 1018.6 |
| 20260507182908 | 49 | 82 | 14.0 | 18.0 | 0.00 | 0.00 | 0.00 | 99 | 1018.7 |
| 20260507182403 | 49 | 82 | 14.0 | 18.0 | 0.00 | 0.00 | 0.00 | 99 | 1018.7 |
| 20260507181900 | 49 | 116 | 14.0 | 19.0 | 0.00 | 0.00 | 0.00 | 99 | 1018.8 |
| 20260507181355 | 49 | 116 | 14.0 | 19.0 | 0.00 | 0.00 | 0.00 | 99 | 1018.8 |
| 20260507180853 | 49 | 93 | 16.0 | 19.0 | 0.00 | 0.00 | 0.00 | 99 | 1018.8 |
| 20260507180349 | 49 | 93 | 16.0 | 19.0 | 0.00 | 0.00 | 0.00 | 99 | 1018.8 |
| 20260507175845 | 49 | 59 | 9.0 | 13.0 | 0.00 | 0.00 | 0.00 | 99 | 1018.7 |
| 20260507175342 | 49 | 59 | 9.0 | 13.0 | 0.00 | 0.00 | 0.00 | 99 | 1018.7 |
| 20260507174840 | 48 | 60 | 11.0 | 15.0 | 0.00 | 0.00 | 0.00 | 99 | 1018.9 |
| 20260507174337 | 48 | 60 | 11.0 | 15.0 | 0.00 | 0.00 | 0.00 | 99 | 1018.9 |
| 20260507173834 | 48 | 105 | 12.0 | 15.0 | 0.00 | 0.00 | 0.00 | 99 | 1019.1 |
| 20260507173331 | 48 | 105 | 12.0 | 15.0 | 0.00 | 0.00 | 0.00 | 99 | 1019.1 |
| 20260507172828 | 48 | 117 | 20.0 | 23.0 | 0.00 | 0.00 | 0.00 | 99 | 1018.6 |
| 20260507172325 | 48 | 117 | 20.0 | 23.0 | 0.00 | 0.00 | 0.00 | 99 | 1018.6 |
| 20260507171820 | 48 | 76 | 15.0 | 17.0 | 0.00 | 0.00 | 0.00 | 99 | 1018.8 |
| 20260507171317 | 48 | 76 | 15.0 | 17.0 | 0.00 | 0.00 | 0.00 | 99 | 1018.8 |
| 20260507170814 | 48 | 121 | 17.0 | 21.0 | 0.00 | 0.00 | 0.00 | 99 | 1018.3 |
| 20260507170311 | 48 | 121 | 17.0 | 21.0 | 0.00 | 0.00 | 0.00 | 99 | 1018.3 |
| 20260507165807 | 48 | 80 | 25.0 | 30.0 | 0.00 | 0.00 | 0.00 | 99 | 1018.3 |
| 20260507165306 | 48 | 80 | 25.0 | 30.0 | 0.00 | 0.00 | 0.00 | 99 | 1018.3 |
| 20260507164759 | 47 | 99 | 17.0 | 19.0 | 0.00 | 0.00 | 0.00 | 99 | 1018.6 |
| 20260507164256 | 47 | 99 | 17.0 | 19.0 | 0.00 | 0.00 | 0.00 | 99 | 1018.6 |
| 20260507163753 | 48 | 115 | 21.0 | 22.0 | 0.00 | 0.00 | 0.00 | 99 | 1018.9 |
| 20260507163251 | 48 | 115 | 21.0 | 22.0 | 0.00 | 0.00 | 0.00 | 99 | 1018.9 |
| 20260507162747 | 48 | 72 | 16.0 | 19.0 | 0.00 | 0.00 | 0.00 | 99 | 1018.7 |
| 20260507162243 | 48 | 72 | 16.0 | 19.0 | 0.00 | 0.00 | 0.00 | 99 | 1018.7 |
| 20260507161740 | 47 | 132 | 19.0 | 22.0 | 0.00 | 0.00 | 0.00 | 99 | 1018.4 |
| 20260507161237 | 47 | 132 | 19.0 | 22.0 | 0.00 | 0.00 | 0.00 | 99 | 1018.4 |
| 20260507160732 | 47 | 114 | 16.0 | 18.0 | 0.00 | 0.00 | 0.00 | 99 | 1018.8 |
| 20260507160229 | 47 | 114 | 16.0 | 18.0 | 0.00 | 0.00 | 0.00 | 99 | 1018.8 |
| 20260507155725 | 46 | 155 | 16.0 | 17.0 | 0.00 | 0.00 | 0.00 | 99 | 1018.4 |
| 20260507155221 | 46 | 155 | 16.0 | 17.0 | 0.00 | 0.00 | 0.00 | 99 | 1018.4 |
| 20260507154718 | 46 | 89 | 15.0 | 21.0 | 0.00 | 0.00 | 0.00 | 99 | 1018.9 |
| 20260507154216 | 46 | 89 | 15.0 | 21.0 | 0.00 | 0.00 | 0.00 | 99 | 1018.9 |
| 20260507153712 | 47 | 155 | 5.0 | 6.0 | 0.00 | 0.00 | 0.00 | 99 | 1019.2 |
| 20260507153208 | 47 | 155 | 5.0 | 6.0 | 0.00 | 0.00 | 0.00 | 99 | 1019.2 |
| 20260507152705 | 46 | 79 | 7.0 | 11.0 | 0.00 | 0.00 | 0.00 | 99 | 1019.1 |
| 20260507152201 | 46 | 79 | 7.0 | 11.0 | 0.00 | 0.00 | 0.00 | 99 | 1019.1 |
| 20260507151657 | 45 | 127 | 9.0 | 10.0 | 0.00 | 0.00 | 0.00 | 99 | 1019.4 |
| 20260507151154 | 45 | 127 | 9.0 | 10.0 | 0.00 | 0.00 | 0.00 | 99 | 1019.4 |
| 20260507150651 | 45 | 140 | 9.0 | 13.0 | 0.00 | 0.00 | 0.00 | 99 | 1019.2 |
| 20260507150148 | 45 | 140 | 9.0 | 13.0 | 0.00 | 0.00 | 0.00 | 99 | 1019.2 |
| 20260507145643 | 44 | 164 | 10.0 | 13.0 | 0.00 | 0.00 | 0.00 | 99 | 1019.1 |
| 20260507145141 | 44 | 164 | 10.0 | 13.0 | 0.00 | 0.00 | 0.00 | 99 | 1019.1 |
| 20260507144637 | 44 | 123 | 12.0 | 14.0 | 0.00 | 0.00 | 0.00 | 99 | 1018.8 |
| 20260507144135 | 44 | 123 | 12.0 | 14.0 | 0.00 | 0.00 | 0.00 | 99 | 1018.8 |
| 20260507143631 | 44 | 94 | 12.0 | 13.0 | 0.00 | 0.00 | 0.00 | 99 | 1018.8 |
| 20260507143129 | 44 | 94 | 12.0 | 13.0 | 0.00 | 0.00 | 0.00 | 99 | 1018.8 |
| 20260507142624 | 43 | 90 | 17.0 | 19.0 | 0.00 | 0.00 | 0.00 | 99 | 1018.9 |
| 20260507142121 | 43 | 90 | 17.0 | 19.0 | 0.00 | 0.00 | 0.00 | 99 | 1018.9 |
| 20260507141617 | 43 | 93 | 9.0 | 9.0 | 0.00 | 0.00 | 0.00 | 99 | 1018.8 |
| 20260507141114 | 43 | 93 | 9.0 | 9.0 | 0.00 | 0.00 | 0.00 | 99 | 1018.8 |
| 20260507140611 | 42 | 82 | 10.0 | 11.0 | 0.00 | 0.00 | 0.00 | 99 | 1018.8 |
| 20260507140108 | 42 | 82 | 10.0 | 11.0 | 0.00 | 0.00 | 0.00 | 99 | 1018.8 |
| 20260507135605 | 41 | 109 | 8.0 | 9.0 | 0.00 | 0.00 | 0.00 | 99 | 1019.2 |
| 20260507135103 | 41 | 109 | 8.0 | 9.0 | 0.00 | 0.00 | 0.00 | 99 | 1019.2 |
| 20260507134559 | 40 | 80 | 7.0 | 8.0 | 0.00 | 0.00 | 0.00 | 99 | 1019.1 |
| 20260507134055 | 40 | 80 | 7.0 | 8.0 | 0.00 | 0.00 | 0.00 | 99 | 1019.1 |
| 20260507133551 | 40 | 67 | 12.0 | 13.0 | 0.00 | 0.00 | 0.00 | 99 | 1018.8 |
| 20260507133049 | 40 | 67 | 12.0 | 13.0 | 0.00 | 0.00 | 0.00 | 99 | 1018.8 |
| 20260507132546 | 39 | 118 | 10.0 | 11.0 | 0.00 | 0.00 | 0.00 | 99 | 1019.2 |
| 20260507132042 | 39 | 118 | 10.0 | 11.0 | 0.00 | 0.00 | 0.00 | 99 | 1019.2 |
| 20260507131539 | 39 | 96 | 12.0 | 14.0 | 0.00 | 0.00 | 0.00 | 99 | 1018.7 |
| 20260507131037 | 39 | 96 | 12.0 | 14.0 | 0.00 | 0.00 | 0.00 | 99 | 1018.7 |
| 20260507130533 | 39 | 90 | 9.0 | 10.0 | 0.00 | 0.00 | 0.00 | 99 | 1018.8 |
| 20260507130031 | 39 | 90 | 9.0 | 10.0 | 0.00 | 0.00 | 0.00 | 99 | 1018.8 |
| 20260507125529 | 38 | 97 | 11.0 | 13.0 | 0.00 | 0.00 | 0.00 | 99 | 1018.6 |
| 20260507125026 | 38 | 97 | 11.0 | 13.0 | 0.00 | 0.00 | 0.00 | 99 | 1018.6 |
| 20260507124523 | 38 | 81 | 12.0 | 14.0 | 0.00 | 0.00 | 0.00 | 99 | 1018.7 |
| 20260507124020 | 38 | 81 | 12.0 | 14.0 | 0.00 | 0.00 | 0.00 | 99 | 1018.7 |
| 20260507123519 | 38 | 110 | 11.0 | 15.0 | 0.00 | 0.00 | 0.00 | 99 | 1018.8 |
| 20260507123015 | 38 | 110 | 11.0 | 15.0 | 0.00 | 0.00 | 0.00 | 99 | 1018.8 |
| 20260507122510 | 39 | 112 | 12.0 | 16.0 | 0.00 | 0.00 | 0.00 | 99 | 1018.4 |
| 20260507122007 | 39 | 112 | 12.0 | 16.0 | 0.00 | 0.00 | 0.00 | 99 | 1018.4 |
| 20260507121502 | 39 | 81 | 11.0 | 13.0 | 0.00 | 0.00 | 0.00 | 99 | 1018.6 |
| 20260507120958 | 39 | 81 | 11.0 | 13.0 | 0.00 | 0.00 | 0.00 | 99 | 1018.6 |
| 20260507120454 | 40 | 99 | 14.0 | 16.0 | 0.00 | 0.00 | 0.00 | 99 | 1018.6 |
| 20260507115951 | 40 | 99 | 14.0 | 16.0 | 0.00 | 0.00 | 0.00 | 99 | 1018.6 |
| 20260507115448 | 38 | 103 | 13.0 | 15.0 | 0.00 | 0.00 | 0.00 | 99 | 1018.6 |
| 20260507114943 | 38 | 103 | 13.0 | 15.0 | 0.00 | 0.00 | 0.00 | 99 | 1018.6 |
| 20260507114440 | 39 | 96 | 15.0 | 17.0 | 0.00 | 0.00 | 0.00 | 99 | 1018.3 |
| 20260507113937 | 39 | 96 | 15.0 | 17.0 | 0.00 | 0.00 | 0.00 | 99 | 1018.3 |
| 20260507113434 | 39 | 75 | 14.0 | 16.0 | 0.00 | 0.00 | 0.00 | 99 | 1018.4 |
| 20260507112932 | 39 | 75 | 14.0 | 16.0 | 0.00 | 0.00 | 0.00 | 99 | 1018.4 |
| 20260507112429 | 39 | 119 | 21.0 | 24.0 | 0.00 | 0.00 | 0.00 | 99 | 1018.1 |
| 20260507111926 | 39 | 119 | 21.0 | 24.0 | 0.00 | 0.00 | 0.00 | 99 | 1018.1 |